Regional Weather Roundup
Issued by NWS

Home | Current Version | Previous Version | Text Only | Print | Product List | Glossary On
Versions: 1 2 3 4 5 6 7 8 9 10 11 12 13 14 15 16 17 18 19 20 21 22 23 24 25 26 27 28 29 30 31 32 33 34 35 36 37 38 39 40 41 42 43 44 45 46 47 48 49 50
000
ASUS44 KMEG 251010
RWRTN
TENNESSEE HOURLY STATE WEATHER ROUNDUP
NATIONAL WEATHER SERVICE MEMPHIS TN
500 AM CDT SUN SEP 25 2016

TNZ002-004-019-021-049-052-054-088>092-251100-
WEST TENNESSEE

CITY           SKY/WX    TMP DP  RH WIND       PRES   REMARKS
MEMPHIS INTL   CLEAR     76  66  71 SE3       30.03S
NWS MEMPHIS      N/A     69 N/A N/A MISG        N/A
JACKSON          N/A    N/A N/A N/A MISG      30.05S
DYERSBURG      CLEAR    N/A N/A N/A MISG        N/A
UNION CITY     CLEAR     66  66 100 CALM      30.05S
PARIS          CLEAR     66  64  94 CALM      30.08R
HUNTINGDON       N/A     68  66  94 CALM      30.05S
$$

TNZ008-025-027-028-033-062-065-066-251100-
NORTH MIDDLE TENNESSEE

CITY           SKY/WX    TMP DP  RH WIND       PRES   REMARKS
NASHVILLE      CLEAR     66  64  93 CALM      30.08S
PORTLAND       CLEAR     64  64 100 CALM      30.09S
CLARKSVILLE    CLEAR     63  62  97 CALM      30.08R FOG
SMYRNA         CLEAR     65  64  97 CALM      30.09R
COOKEVILLE     CLEAR     61  61 100 CALM      30.08S
GALLATIN       CLEAR     64  63  94 CALM      30.10S
CROSSVILLE     CLEAR     61  60  97 CALM      30.14R
$$

TNZ061-075-076-078-094-096-097-251100-
SOUTH MIDDLE TENNESSEE

CITY           SKY/WX    TMP DP  RH WIND       PRES   REMARKS
FAYETTEVILLE   CLOUDY    68  64  88 N7        30.08R
TULLAHOMA      CLEAR     63  59  88 CALM      30.10R
WINCHESTER     CLEAR     63  61  94 CALM      30.09R
MCMINNVILLE    CLEAR     63  63 100 CALM      30.09S
COLUMBIA       CLEAR    N/A N/A N/A CALM      30.07R
$$

TNZ017-018-042-046-047-251100-
NORTHEAST TENNESSEE

CITY           SKY/WX    TMP DP  RH WIND       PRES   REMARKS
TRI CITIES     CLEAR     60  59  96 N3        30.13S
ELIZABETHTON   CLEAR     61  59  94 CALM      30.13F
$$

TNZ012-013-036-069-073-074-251100-
CENTRAL EAST TENNESSEE

CITY           SKY/WX    TMP DP  RH WIND       PRES   REMARKS
KNOXVILLE      CLEAR     68  62  81 CALM      30.08R
DOWNTOWN KNOXV CLEAR     64  64 100 CALM      30.09R
GATLINBURG     CLEAR     63  61  94 CALM      30.09S
MORRISTOWN     CLEAR     68  64  88 CALM      30.10S
JACKSBORO      CLEAR     61  61 100 CALM      30.14R FOG
$$

TNZ083-085-099-251100-
SOUTHEAST TENNESSEE

CITY           SKY/WX    TMP DP  RH WIND       PRES   REMARKS
CHATTANOOGA    CLEAR     68  62  81 CALM      30.08R
$$

SKY/WX REPORTED AS FAIR MEANS FEW OR NO CLOUDS BELOW
12 THOUSAND FEET.





USA.gov is the U.S. government's official web portal to all federal, state and local government web resources and services.